LA5PPA-1 Weather Reports


Display with metric or nautical units.
time (UTC)temp
F
wind
direction
speed
MPH
gust
MPH
rain 1hr
in
rain 24hr
in
rain mn
in
humidity
%
barometer
mb
20260510170645 37 324 0.0 8.0 0.00 0.07 0.06 49 1008.7
20260510170346 37 334 6.0 8.0 0.00 0.07 0.06 48 1008.8
20260510170145 37 326 5.0 7.0 0.00 0.10 0.06 48 1008.8
20260510165645 37 278 1.0 6.0 0.00 0.10 0.06 49 1008.8
20260510165246 37 240 1.0 7.0 0.00 0.10 0.06 49 1008.9
20260510165145 37 322 3.0 7.0 0.00 0.10 0.06 48 1008.9
20260510164645 37 310 1.0 3.0 0.00 0.10 0.06 48 1008.9
20260510164145 37 336 0.0 3.0 0.00 0.10 0.06 49 1009.0
20260510163645 37 319 0.0 6.0 0.00 0.10 0.06 50 1009.0
20260510163145 37 319 4.0 7.0 0.00 0.10 0.06 48 1009.1
20260510163046 37 322 2.0 7.0 0.00 0.10 0.06 48 1009.1
20260510162645 38 343 2.0 6.0 0.00 0.10 0.06 47 1009.1
20260510162145 39 319 1.0 11.0 0.00 0.10 0.06 45 1009.1
20260510161946 38 286 0.0 11.0 0.00 0.10 0.06 46 1009.1
20260510161645 38 329 6.0 9.0 0.00 0.10 0.06 47 1009.2
20260510161145 38 306 0.0 2.0 0.00 0.10 0.06 49 1009.2
20260510160846 37 291 0.0 0.0 0.00 0.10 0.06 50 1009.2
20260510160645 37 291 0.0 0.0 0.00 0.10 0.06 50 1009.3
20260510160145 37 291 0.0 7.0 0.00 0.11 0.06 49 1009.3
20260510155746 38 336 0.0 5.0 0.00 0.11 0.06 48 1009.3
20260510155645 38 296 0.0 5.0 0.00 0.11 0.06 48 1009.3
20260510155145 38 302 0.0 9.0 0.00 0.11 0.06 48 1009.4
20260510154645 38 303 0.0 7.0 0.00 0.11 0.06 47 1009.4
20260510154145 38 295 6.0 8.0 0.00 0.11 0.06 45 1009.4
20260510153645 38 307 5.0 5.0 0.00 0.11 0.06 46 1009.4
20260510153546 38 279 3.0 5.0 0.00 0.11 0.06 46 1009.4
20260510153145 38 254 1.0 8.0 0.00 0.11 0.06 47 1009.7
20260510152645 38 307 5.0 10.0 0.00 0.11 0.06 45 1009.7
20260510152446 38 326 4.0 9.0 0.00 0.11 0.06 44 1009.8
20260510152145 38 324 5.0 13.0 0.00 0.11 0.06 44 1009.8
20260510151645 38 324 0.0 8.0 0.00 0.11 0.06 44 1009.8
20260510151346 38 338 4.0 12.0 0.00 0.11 0.06 45 1009.8
20260510151145 38 305 6.0 12.0 0.00 0.11 0.06 45 1009.8
20260510150645 38 320 3.0 11.0 0.00 0.11 0.06 44 1009.9
20260510150246 38 309 3.0 8.0 0.00 0.11 0.06 44 1010.0
20260510150145 38 322 6.0 10.0 0.00 0.11 0.06 45 1010.0
20260510145645 38 326 3.0 10.0 0.00 0.11 0.06 44 1010.1
20260510145145 38 312 7.0 11.0 0.00 0.11 0.06 44 1010.0
20260510144645 38 344 0.0 1.0 0.00 0.11 0.06 44 1010.1
20260510144145 38 331 1.0 6.0 0.00 0.11 0.06 43 1010.1
20260510144046 38 343 0.0 6.0 0.00 0.11 0.06 42 1010.2
20260510143645 38 312 3.0 7.0 0.00 0.11 0.06 41 1010.2
20260510143145 38 322 0.0 9.0 0.00 0.11 0.06 43 1010.2
20260510142946 38 293 0.0 11.0 0.00 0.11 0.06 43 1010.2
20260510142645 39 289 3.0 11.0 0.00 0.11 0.06 42 1010.2
20260510142145 39 275 0.0 5.0 0.00 0.11 0.06 44 1010.2
20260510141846 39 299 0.0 5.0 0.00 0.11 0.06 44 1010.2
20260510141645 39 336 0.0 5.0 0.00 0.11 0.06 46 1010.3
20260510141145 39 320 5.0 9.0 0.00 0.11 0.06 44 1010.3
20260510140746 39 299 5.0 9.0 0.00 0.11 0.06 43 1010.4
20260510140645 39 306 5.0 5.0 0.00 0.11 0.06 43 1010.3
20260510140145 39 306 0.0 5.0 0.00 0.11 0.06 43 1010.4
20260510135645 39 286 3.0 9.0 0.00 0.11 0.06 44 1010.6
20260510135145 39 330 4.0 9.0 0.00 0.11 0.06 43 1010.6
20260510134645 39 293 5.0 10.0 0.00 0.11 0.06 43 1010.6
20260510134546 39 317 8.0 10.0 0.00 0.11 0.06 44 1010.6
20260510134145 39 324 4.0 9.0 0.00 0.11 0.06 42 1010.6
20260510133645 39 315 5.0 9.0 0.00 0.11 0.06 43 1010.7
20260510133446 39 291 9.0 9.0 0.00 0.11 0.06 44 1010.7
20260510133145 39 310 2.0 10.0 0.00 0.11 0.06 43 1010.7
20260510132645 40 288 3.0 8.0 0.00 0.11 0.06 43 1010.7
20260510132346 40 320 3.0 9.0 0.00 0.11 0.06 40 1010.8
20260510132145 40 320 4.0 9.0 0.00 0.11 0.06 39 1010.8
20260510131645 41 316 3.0 7.0 0.00 0.11 0.06 43 1010.8
20260510131246 41 253 4.0 12.0 0.00 0.11 0.06 43 1010.8
20260510131145 41 286 5.0 12.0 0.00 0.11 0.06 44 1010.8
20260510130645 42 303 5.0 9.0 0.00 0.11 0.06 44 1010.9
20260510130145 41 306 3.0 8.0 0.00 0.11 0.06 44 1010.9
20260510125645 40 316 5.0 13.0 0.00 0.11 0.06 43 1010.9
20260510125145 42 337 2.0 13.0 0.00 0.11 0.06 41 1010.7
20260510125046 42 291 8.0 12.0 0.00 0.11 0.06 41 1010.9
20260510124645 43 303 7.0 12.0 0.00 0.11 0.06 45 1010.9
20260510124145 42 316 2.0 7.0 0.00 0.11 0.06 43 1011.0
20260510123946 42 292 6.0 7.0 0.00 0.11 0.06 42 1011.0
20260510123645 42 312 7.0 10.0 0.00 0.11 0.06 43 1011.1
20260510123145 41 253 8.0 11.0 0.00 0.11 0.06 40 1011.2
20260510122846 42 271 11.0 14.0 0.00 0.11 0.06 37 1011.1
20260510122645 42 336 3.0 14.0 0.00 0.11 0.06 38 1011.2
20260510122145 43 95 6.0 14.0 0.00 0.11 0.06 45 1011.2
20260510121746 43 299 6.0 10.0 0.00 0.11 0.06 43 1011.2
20260510121645 43 296 6.0 11.0 0.00 0.11 0.06 43 1011.3
20260510121145 42 232 6.0 10.0 0.00 0.11 0.06 45 1011.2
20260510120645 40 236 3.0 11.0 0.00 0.11 0.06 46 1011.3
20260510120145 40 316 5.0 9.0 0.00 0.11 0.06 44 1011.5
20260510115645 40 298 3.0 11.0 0.00 0.11 0.06 43 1011.3
20260510115546 41 295 10.0 11.0 0.00 0.11 0.06 41 1011.5
20260510115145 41 293 7.0 10.0 0.00 0.11 0.06 43 1011.5
20260510114645 41 302 2.0 7.0 0.00 0.11 0.06 45 1011.5
20260510114446 41 323 2.0 9.0 0.00 0.11 0.06 46 1011.7
20260510114145 40 305 5.0 9.0 0.00 0.11 0.06 45 1011.7
20260510113645 40 331 8.0 10.0 0.00 0.11 0.06 47 1011.8
20260510113346 41 312 5.0 11.0 0.00 0.11 0.06 44 1011.8
20260510113145 42 319 2.0 11.0 0.00 0.11 0.06 44 1011.8
20260510112645 42 315 3.0 7.0 0.00 0.11 0.06 47 1011.7
20260510112246 41 298 2.0 8.0 0.00 0.11 0.06 53 1011.8
20260510112145 41 277 2.0 12.0 0.00 0.11 0.06 48 1011.8
20260510111645 40 286 7.0 7.0 0.00 0.11 0.06 51 1011.9
20260510111145 39 278 4.0 10.0 0.00 0.11 0.06 51 1011.9
20260510110645 38 331 2.0 7.0 0.00 0.11 0.06 54 1012.0
20260510110145 38 298 5.0 8.0 0.00 0.11 0.06 51 1011.9
20260510110046 38 323 4.0 8.0 0.00 0.11 0.06 52 1012.1
20260510105645 38 316 5.0 9.0 0.00 0.11 0.06 52 1012.1
20260510105145 39 315 3.0 13.0 0.00 0.11 0.06 49 1012.1
20260510104946 40 295 8.0 13.0 0.00 0.11 0.06 50 1012.1
20260510104645 41 354 0.0 8.0 0.00 0.11 0.06 48 1012.1
20260510104145 41 317 5.0 6.0 0.00 0.11 0.06 51 1012.0
20260510103846 40 284 0.0 8.0 0.00 0.11 0.06 51 1012.1
20260510103645 40 300 0.0 9.0 0.00 0.11 0.06 51 1012.2
20260510103145 39 299 2.0 8.0 0.00 0.11 0.06 55 1012.4
20260510102746 38 261 0.0 8.0 0.00 0.11 0.06 54 1012.4
20260510102645 38 295 8.0 8.0 0.00 0.11 0.06 55 1012.4
20260510102145 37 285 2.0 6.0 0.00 0.11 0.06 55 1012.5
20260510101645 37 326 2.0 10.0 0.00 0.11 0.06 54 1012.6
20260510101145 38 317 4.0 7.0 0.00 0.11 0.06 52 1012.6
20260510100645 38 298 2.0 7.0 0.00 0.11 0.06 52 1012.7
20260510100546 38 293 4.0 7.0 0.00 0.11 0.06 54 1012.6
20260510100145 39 319 0.0 7.0 0.00 0.11 0.06 53 1012.6
20260510095645 38 279 3.0 6.0 0.00 0.11 0.06 58 1012.8
20260510095446 37 319 3.0 9.0 0.00 0.11 0.06 56 1012.7
20260510095145 37 306 4.0 9.0 0.00 0.11 0.06 56 1012.7
20260510094645 37 319 5.0 8.0 0.00 0.11 0.06 58 1012.9
20260510094346 37 322 3.0 10.0 0.00 0.11 0.06 56 1012.9
20260510094145 37 312 4.0 10.0 0.00 0.11 0.06 55 1012.8
20260510093645 38 300 1.0 8.0 0.00 0.11 0.06 56 1012.8
20260510093246 38 296 4.0 7.0 0.00 0.11 0.06 53 1012.8
20260510093145 38 291 3.0 7.0 0.00 0.11 0.06 51 1012.8
20260510092645 38 323 0.0 6.0 0.00 0.11 0.06 53 1012.9
20260510092145 37 334 5.0 5.0 0.00 0.11 0.06 58 1013.0
20260510091645 37 274 0.0 6.0 0.00 0.11 0.06 59 1013.0
20260510091145 37 237 1.0 9.0 0.01 0.11 0.06 57 1012.9
20260510091046 37 320 3.0 9.0 0.01 0.11 0.06 58 1013.0
20260510090645 38 324 5.0 5.0 0.01 0.11 0.06 61 1013.1
20260510090145 37 315 0.0 5.0 0.01 0.11 0.06 63 1013.1
20260510085946 37 315 0.0 5.0 0.01 0.11 0.06 63 1013.1
20260510085645 37 303 1.0 6.0 0.01 0.11 0.06 62 1013.1
20260510085145 37 303 4.0 9.0 0.02 0.11 0.06 59 1013.1
20260510084846 38 286 6.0 9.0 0.02 0.11 0.06 60 1013.1
20260510084645 38 281 2.0 6.0 0.02 0.11 0.06 57 1013.1
20260510084145 38 8 1.0 6.0 0.03 0.11 0.06 56 1013.1
20260510083746 38 330 4.0 6.0 0.03 0.11 0.06 54 1013.3
20260510083645 38 323 6.0 6.0 0.03 0.11 0.06 59 1013.3
20260510083145 37 358 2.0 5.0 0.03 0.11 0.06 60 1013.3
20260510082645 36 302 4.0 5.0 0.04 0.11 0.06 64 1013.4
20260510082145 36 236 0.0 6.0 0.05 0.11 0.06 64 1013.5
20260510081645 36 298 3.0 8.0 0.05 0.11 0.06 63 1013.5
20260510081546 36 313 4.0 8.0 0.05 0.11 0.06 62 1013.5
20260510081145 36 264 0.0 8.0 0.05 0.10 0.05 64 1013.5
20260510080645 35 282 4.0 7.0 0.05 0.10 0.05 64 1013.7
20260510080446 35 326 0.0 8.0 0.05 0.10 0.05 62 1013.7
20260510080145 35 299 3.0 9.0 0.05 0.10 0.05 66 1013.8
20260510075645 35 288 6.0 6.0 0.05 0.10 0.05 64 1013.9
20260510075346 35 309 3.0 6.0 0.04 0.09 0.04 68 1013.9
20260510075145 35 260 0.0 6.0 0.04 0.09 0.04 65 1013.9
20260510074645 35 316 5.0 6.0 0.04 0.09 0.04 69 1014.0
20260510074246 34 292 0.0 6.0 0.04 0.09 0.04 67 1014.0
20260510074145 34 315 3.0 6.0 0.03 0.08 0.03 67 1014.0
20260510073645 34 281 2.0 7.0 0.03 0.08 0.03 69 1014.0
20260510073145 34 257 2.0 7.0 0.03 0.08 0.03 69 1014.0
20260510072645 33 285 2.0 7.0 0.02 0.07 0.02 72 1014.1
20260510072145 33 306 3.0 6.0 0.01 0.06 0.01 71 1014.3
20260510072046 33 285 2.0 4.0 0.01 0.06 0.01 73 1014.3
20260510071645 33 312 1.0 6.0 0.01 0.06 0.01 73 1014.3
20260510071145 32 322 4.0 7.0 0.00 0.05 0.00 74 1014.4
20260510070946 32 327 3.0 7.0 0.00 0.05 0.00 73 1014.4
20260510070645 32 323 4.0 6.0 0.00 0.05 0.00 76 1014.4
20260510070145 32 295 0.0 6.0 0.00 0.05 0.00 77 1014.5
20260510065846 32 303 1.0 6.0 0.00 0.05 0.00 75 1014.5
20260510065645 32 323 2.0 4.0 0.00 0.05 0.00 76 1014.5
20260510065145 31 306 1.0 4.0 0.00 0.05 0.00 76 1014.6
20260510064747 31 303 0.0 3.0 0.00 0.05 0.00 78 1014.6
20260510064645 31 292 0.0 3.0 0.00 0.05 0.00 78 1014.6
20260510064145 31 307 2.0 6.0 0.00 0.05 0.00 76 1014.6
20260510063645 31 319 2.0 6.0 0.00 0.05 0.00 77 1014.6
20260510063145 31 330 0.0 0.0 0.00 0.05 0.00 77 1014.7
20260510062645 32 330 0.0 4.0 0.00 0.05 0.00 76 1014.7
20260510062546 31 302 1.0 4.0 0.00 0.05 0.00 76 1014.8
20260510062145 31 296 0.0 2.0 0.00 0.05 0.00 78 1014.8
20260510061646 31 313 2.0 4.0 0.00 0.05 0.00 78 1014.8
20260510061447 31 296 2.0 3.0 0.00 0.05 0.00 77 1014.9
20260510061146 31 320 3.0 3.0 0.00 0.05 0.00 78 1014.9
20260510060646 31 299 1.0 1.0 0.00 0.05 0.00 78 1014.9
20260510060347 31 285 0.0 1.0 0.00 0.05 0.00 77 1015.0
20260510060146 31 285 0.0 1.0 0.00 0.05 0.00 78 1015.0
20260510055646 31 250 0.0 0.0 0.00 0.05 0.00 80 1015.0
20260510055247 31 250 0.0 0.0 0.00 0.05 0.00 79 1015.2
20260510055146 31 250 0.0 0.0 0.00 0.05 0.00 79 1015.2
20260510054646 31 250 0.0 0.0 0.00 0.05 0.00 79 1015.3
20260510054146 31 250 0.0 0.0 0.00 0.05 0.00 79 1015.4
20260510053646 31 250 0.0 0.0 0.00 0.05 0.00 81 1015.3
20260510053146 31 250 0.0 0.0 0.00 0.05 0.00 82 1015.3
20260510053047 31 250 0.0 0.0 0.00 0.05 0.00 82 1015.4
20260510052646 31 250 0.0 0.0 0.00 0.05 0.00 81 1015.5
20260510052146 31 250 0.0 0.0 0.00 0.05 0.00 82 1015.5
20260510051947 31 250 0.0 0.0 0.00 0.05 0.00 83 1015.5
20260510051646 31 250 0.0 0.0 0.00 0.05 0.00 83 1015.7
20260510051146 31 250 0.0 0.0 0.00 0.05 0.00 84 1015.6
20260510050847 30 250 0.0 0.0 0.00 0.05 0.00 85 1015.6
20260510050646 30 250 0.0 0.0 0.00 0.05 0.00 85 1015.7
20260510050146 30 250 0.0 0.0 0.00 0.05 0.00 85 1015.7
20260510045747 30 250 0.0 0.0 0.00 0.05 0.00 85 1015.8
20260510045646 30 250 0.0 0.0 0.00 0.05 0.00 85 1015.8
20260510045146 30 250 0.0 0.0 0.00 0.05 0.00 84 1015.8
20260510044646 30 250 0.0 0.0 0.00 0.05 0.00 85 1015.9
20260510044146 30 250 0.0 0.0 0.00 0.05 0.00 87 1015.9
20260510043646 30 250 0.0 0.0 0.00 0.05 0.00 87 1015.8
20260510043547 30 250 0.0 0.0 0.00 0.05 0.00 87 1015.9
20260510043146 30 250 0.0 0.0 0.00 0.05 0.00 87 1016.1
20260510042646 30 250 0.0 0.0 0.00 0.05 0.00 87 1016.1
20260510042447 30 250 0.0 0.0 0.00 0.05 0.00 87 1016.2
20260510042146 30 250 0.0 0.0 0.00 0.05 0.00 87 1016.2
20260510041646 29 250 0.0 0.0 0.00 0.05 0.00 87 1016.2
20260510041347 29 250 0.0 0.0 0.00 0.05 0.00 87 1016.3
20260510041146 29 250 0.0 0.0 0.00 0.05 0.00 88 1016.3
20260510040646 29 250 0.0 0.0 0.00 0.05 0.00 88 1016.3
20260510040247 29 250 0.0 0.0 0.00 0.05 0.00 88 1016.3
20260510040146 29 250 0.0 0.0 0.00 0.05 0.00 88 1016.3
20260510035646 29 250 0.0 0.0 0.00 0.05 0.00 88 1016.4
20260510035146 29 250 0.0 0.0 0.00 0.05 0.00 88 1016.4
20260510034646 29 250 0.0 0.0 0.00 0.05 0.00 88 1016.4
20260510034146 29 250 0.0 0.0 0.00 0.05 0.00 88 1016.4
20260510034047 29 250 0.0 0.0 0.00 0.05 0.00 88 1016.6
20260510033646 29 250 0.0 0.0 0.00 0.05 0.00 88 1016.6
20260510033146 29 250 0.0 0.0 0.00 0.05 0.00 87 1016.6
20260510032947 29 250 0.0 0.0 0.00 0.05 0.00 87 1016.6
20260510032646 29 250 0.0 0.0 0.00 0.05 0.00 87 1016.7
20260510032146 29 250 0.0 0.0 0.00 0.05 0.00 87 1016.7
20260510031848 29 250 0.0 0.0 0.00 0.05 0.00 87 1016.7
20260510031646 29 250 0.0 0.0 0.00 0.05 0.00 87 1016.7
20260510031146 29 250 0.0 0.0 0.00 0.05 0.00 87 1016.8
20260510030747 29 250 0.0 0.0 0.00 0.05 0.00 87 1016.8
20260510030646 30 250 0.0 0.0 0.00 0.05 0.00 87 1016.8
20260510030146 30 250 0.0 0.0 0.00 0.05 0.00 87 1016.9
20260510025646 30 250 0.0 0.0 0.00 0.05 0.00 87 1016.9
20260510025146 30 250 0.0 0.0 0.00 0.05 0.00 87 1017.1
20260510024646 30 250 0.0 0.0 0.00 0.05 0.00 87 1017.1
20260510024547 30 250 0.0 0.0 0.00 0.05 0.00 87 1017.1
20260510024146 30 250 0.0 0.0 0.00 0.05 0.00 87 1017.1
20260510023646 30 250 0.0 0.0 0.00 0.05 0.00 87 1017.2
20260510023447 30 250 0.0 0.0 0.00 0.05 0.00 87 1017.2
20260510023146 30 250 0.0 0.0 0.00 0.05 0.00 87 1017.3
20260510022646 30 250 0.0 0.0 0.00 0.05 0.00 88 1017.4
20260510022347 30 250 0.0 0.0 0.00 0.05 0.00 88 1017.4
20260510022146 30 250 0.0 0.0 0.00 0.05 0.00 88 1017.4
20260510021646 30 250 0.0 0.0 0.00 0.05 0.00 88 1017.3
20260510021247 30 250 0.0 0.0 0.00 0.05 0.00 88 1017.4
20260510021146 30 250 0.0 0.0 0.00 0.05 0.00 88 1017.4
20260510020646 30 250 0.0 0.0 0.00 0.05 0.00 88 1017.4
20260510020146 30 250 0.0 0.0 0.00 0.05 0.00 88 1017.4
20260510015646 30 250 0.0 0.0 0.00 0.05 0.00 88 1017.4
20260510015146 30 250 0.0 0.0 0.00 0.05 0.00 88 1017.5
20260510015047 30 250 0.0 0.0 0.00 0.05 0.00 88 1017.4
20260510014646 30 250 0.0 0.0 0.00 0.05 0.00 88 1017.5
20260510014146 31 250 0.0 0.0 0.00 0.05 0.00 88 1017.6
20260510013947 31 250 0.0 0.0 0.00 0.05 0.00 88 1017.6
20260510013646 31 250 0.0 0.0 0.00 0.05 0.00 88 1017.7
20260510013146 31 250 0.0 0.0 0.00 0.05 0.00 88 1017.7
20260510012847 31 250 0.0 0.0 0.00 0.05 0.00 88 1017.7
20260510012646 31 250 0.0 0.0 0.00 0.05 0.00 88 1017.7
20260510012146 31 250 0.0 0.0 0.00 0.05 0.00 88 1017.7
20260510011747 31 250 0.0 0.0 0.00 0.05 0.00 88 1017.8
20260510011646 31 250 0.0 0.0 0.00 0.05 0.00 88 1017.8
20260510011146 31 250 0.0 0.0 0.00 0.05 0.00 89 1017.8
20260510010646 31 250 0.0 0.0 0.00 0.05 0.00 89 1017.8
20260510010146 31 250 0.0 0.0 0.00 0.05 0.00 89 1018.0
20260510005646 31 250 0.0 0.0 0.00 0.05 0.00 89 1018.0
20260510005547 31 250 0.0 0.0 0.00 0.05 0.00 89 1018.1
20260510005146 31 250 0.0 0.0 0.00 0.05 0.00 89 1018.1
20260510004646 31 250 0.0 0.0 0.00 0.05 0.00 89 1018.2
20260510004447 31 250 0.0 0.0 0.00 0.05 0.00 89 1018.2
20260510004146 31 250 0.0 0.0 0.00 0.05 0.00 89 1018.3
20260510003646 31 250 0.0 0.0 0.00 0.05 0.00 89 1018.3
20260510003347 31 250 0.0 0.0 0.00 0.05 0.00 90 1018.3
20260510003146 31 250 0.0 0.0 0.00 0.05 0.00 90 1018.3
20260510002646 31 250 0.0 0.0 0.00 0.05 0.00 90 1018.3
20260510002247 31 250 0.0 0.0 0.00 0.05 0.00 90 1018.3
20260510002146 31 250 0.0 0.0 0.00 0.05 0.00 90 1018.3
20260510001646 31 250 0.0 0.0 0.00 0.05 0.00 90 1018.3
20260510001146 31 250 0.0 0.0 0.00 0.05 0.00 90 1018.4
20260510000646 31 250 0.0 0.0 0.00 0.05 0.00 90 1018.5
20260510000146 31 250 0.0 0.0 0.00 0.05 0.00 90 1018.3
20260510000047 31 250 0.0 0.0 0.00 0.05 0.00 90 1018.4
20260509235646 31 250 0.0 0.0 0.00 0.05 0.00 91 1018.5
20260509235146 31 250 0.0 0.0 0.00 0.05 0.00 91 1018.5
20260509234947 31 250 0.0 0.0 0.00 0.05 0.00 91 1018.5
20260509234646 31 250 0.0 0.0 0.00 0.05 0.00 91 1018.4
20260509234146 31 250 0.0 0.0 0.00 0.05 0.00 91 1018.5
20260509233847 31 250 0.0 0.0 0.00 0.05 0.00 91 1018.5
20260509233646 31 250 0.0 0.0 0.00 0.05 0.00 91 1018.5
20260509233146 31 250 0.0 0.0 0.00 0.05 0.00 91 1018.5
20260509232747 31 250 0.0 0.0 0.00 0.05 0.00 91 1018.5
20260509232646 31 250 0.0 0.0 0.00 0.05 0.00 91 1018.4
20260509232146 31 250 0.0 0.0 0.00 0.05 0.00 91 1018.6
20260509231646 31 250 0.0 0.0 0.00 0.05 0.00 91 1018.7
20260509231146 31 250 0.0 0.0 0.00 0.05 0.00 91 1018.7
20260509230646 31 250 0.0 0.0 0.00 0.05 0.00 91 1018.9
20260509230547 31 250 0.0 0.0 0.00 0.05 0.00 91 1018.7
20260509230146 31 250 0.0 0.0 0.00 0.05 0.00 91 1018.9
20260509225646 31 250 0.0 0.0 0.00 0.05 0.00 90 1018.9
20260509225447 31 250 0.0 0.0 0.00 0.05 0.00 90 1018.9
20260509225146 32 250 0.0 0.0 0.00 0.05 0.00 90 1019.0
20260509224646 32 250 0.0 0.0 0.00 0.05 0.00 91 1019.0
20260509224347 32 250 0.0 0.0 0.00 0.05 0.00 91 1019.1
20260509224146 32 250 0.0 0.0 0.00 0.05 0.00 91 1019.1
20260509223646 32 250 0.0 0.0 0.00 0.05 0.00 92 1019.1
20260509223247 32 250 0.0 0.0 0.00 0.05 0.00 92 1019.2
20260509223146 32 250 0.0 0.0 0.00 0.05 0.00 92 1019.2
20260509222646 32 250 0.0 0.0 0.00 0.05 0.00 92 1019.3
20260509222146 32 250 0.0 0.0 0.00 0.05 0.00 91 1019.3
20260509221646 32 250 0.0 0.0 0.00 0.05 0.00 92 1019.4
20260509221146 32 250 0.0 0.0 0.00 0.05 0.00 92 1019.3
20260509221047 32 250 0.0 0.0 0.00 0.05 0.00 92 1019.4
20260509220146 32 250 0.0 0.0 0.00 0.05 0.00 93 1019.5
20260509215947 32 250 0.0 0.0 0.00 0.05 0.00 93 1019.5
20260509215646 32 250 0.0 0.0 0.00 0.05 0.00 93 1019.5
20260509215146 32 250 0.0 0.0 0.00 0.05 0.00 93 1019.5
20260509214847 32 250 0.0 0.0 0.00 0.05 0.05 93 1019.6
20260509214646 32 250 0.0 0.0 0.00 0.05 0.05 93 1019.5
20260509214146 32 250 0.0 0.0 0.00 0.05 0.05 93 1019.6
20260509213747 32 250 0.0 0.0 0.00 0.05 0.05 93 1019.5
20260509213646 32 250 0.0 0.0 0.00 0.05 0.05 93 1019.6
20260509213146 32 250 0.0 0.0 0.00 0.05 0.05 92 1019.6
20260509212646 32 250 0.0 0.0 0.00 0.05 0.05 92 1019.6
20260509212146 32 250 0.0 0.0 0.00 0.05 0.05 92 1019.8
20260509211646 32 250 0.0 0.0 0.00 0.05 0.05 92 1019.8
20260509211547 32 250 0.0 0.0 0.00 0.05 0.05 92 1019.8
20260509211146 32 250 0.0 0.0 0.00 0.05 0.05 92 1019.8
20260509210646 32 250 0.0 0.0 0.00 0.05 0.05 92 1019.8
20260509210447 32 250 0.0 0.0 0.00 0.05 0.05 92 1019.8
20260509210146 32 250 0.0 0.0 0.00 0.05 0.05 91 1019.9
20260509205646 33 250 0.0 0.0 0.00 0.05 0.05 91 1019.9
20260509205347 33 250 0.0 0.0 0.00 0.05 0.05 91 1020.0
20260509205146 33 250 0.0 0.0 0.00 0.05 0.05 91 1020.0
20260509204646 33 250 0.0 0.0 0.00 0.05 0.05 90 1019.9
20260509204247 33 250 0.0 0.0 0.00 0.05 0.05 90 1019.9
20260509204146 33 250 0.0 0.0 0.00 0.05 0.05 90 1020.0
20260509203646 33 250 0.0 0.0 0.00 0.05 0.05 89 1020.0
20260509203146 33 250 0.0 0.0 0.00 0.05 0.05 89 1020.0
20260509202646 33 250 0.0 0.0 0.00 0.05 0.05 89 1020.1
20260509202146 33 250 0.0 0.0 0.00 0.05 0.05 89 1019.9
20260509202047 33 250 0.0 0.0 0.00 0.05 0.05 89 1020.0
20260509201647 33 250 0.0 0.0 0.00 0.05 0.05 89 1020.0
20260509201146 33 250 0.0 0.0 0.00 0.05 0.05 89 1020.1
20260509200947 33 250 0.0 0.0 0.00 0.05 0.05 89 1020.0
20260509200646 33 250 0.0 0.0 0.00 0.05 0.05 89 1020.1
20260509200146 33 292 0.0 2.0 0.00 0.05 0.05 89 1020.1
20260509195847 33 260 0.0 2.0 0.00 0.05 0.05 89 1020.1
20260509195646 33 306 0.0 2.0 0.00 0.05 0.05 89 1020.1
20260509195146 33 291 1.0 3.0 0.00 0.05 0.05 88 1020.2
20260509194748 34 300 0.0 1.0 0.00 0.05 0.05 88 1020.1
20260509194646 34 291 1.0 1.0 0.00 0.05 0.05 88 1020.2
20260509194146 34 282 0.0 1.0 0.01 0.05 0.05 88 1020.1
20260509193646 34 292 1.0 4.0 0.01 0.05 0.05 88 1020.1
20260509193146 34 327 2.0 4.0 0.01 0.05 0.05 87 1020.1
20260509192646 34 289 0.0 5.0 0.01 0.05 0.05 87 1020.0
20260509192548 34 295 1.0 5.0 0.01 0.05 0.05 87 1020.1
20260509192146 34 288 1.0 3.0 0.01 0.05 0.05 86 1020.2
20260509191646 34 302 1.0 5.0 0.01 0.05 0.05 86 1020.2
20260509191448 34 302 1.0 8.0 0.01 0.05 0.05 86 1020.2
20260509191146 34 329 4.0 8.0 0.01 0.05 0.05 85 1020.2
20260509190646 34 350 1.0 7.0 0.01 0.05 0.05 86 1020.3
20260509190348 34 313 4.0 6.0 0.01 0.05 0.05 88 1020.3
20260509190146 34 320 2.0 4.0 0.01 0.05 0.05 88 1020.2
20260509185646 34 174 1.0 3.0 0.01 0.05 0.05 87 1020.3
20260509185247 35 284 1.0 2.0 0.01 0.05 0.05 87 1020.3
20260509185146 35 298 1.0 2.0 0.02 0.05 0.05 87 1020.3
20260509184646 35 270 0.0 1.0 0.02 0.05 0.05 87 1020.4
20260509184146 35 47 0.0 0.0 0.02 0.04 0.04 88 1020.4
20260509183646 35 47 0.0 0.0 0.02 0.04 0.04 88 1020.3
20260509183147 34 47 0.0 0.0 0.02 0.04 0.04 88 1020.1
20260509183048 34 47 0.0 0.0 0.02 0.04 0.04 88 1020.3
20260509182647 34 47 0.0 0.0 0.03 0.04 0.04 89 1020.3
20260509182147 34 53 0.0 3.0 0.03 0.04 0.04 89 1020.3
20260509181947 34 53 0.0 4.0 0.03 0.04 0.04 89 1020.3
20260509181646 34 40 2.0 4.0 0.03 0.04 0.04 89 1020.3
20260509181147 34 306 0.0 5.0 0.03 0.04 0.04 89 1020.3
20260509180848 34 315 2.0 6.0 0.03 0.04 0.04 89 1020.3
20260509180647 35 331 3.0 6.0 0.03 0.04 0.04 89 1020.3
20260509180147 35 327 3.0 10.0 0.03 0.04 0.04 89 1020.3
20260509175748 36 315 4.0 12.0 0.03 0.04 0.04 89 1020.3
20260509175647 36 320 7.0 12.0 0.03 0.04 0.04 90 1020.3
20260509175147 36 327 6.0 8.0 0.02 0.03 0.03 89 1020.2
20260509174647 37 248 4.0 9.0 0.02 0.03 0.03 88 1020.3
20260509174147 37 310 3.0 8.0 0.01 0.02 0.02 86 1020.2
20260509173647 38 336 3.0 8.0 0.01 0.02 0.02 83 1020.1
20260509173548 38 261 3.0 8.0 0.01 0.02 0.02 83 1020.2
20260509173147 38 243 5.0 5.0 0.01 0.02 0.02 81 1020.2
20260509172647 38 111 3.0 8.0 0.01 0.01 0.01 80 1020.2
20260509172448 38 225 3.0 8.0 0.01 0.01 0.01 80 1020.2
20260509172147 38 250 3.0 8.0 0.01 0.01 0.01 79 1020.2
20260509171647 39 212 5.0 8.0 0.01 0.01 0.01 79 1020.2
20260509171348 39 229 3.0 8.0 0.01 0.01 0.01 78 1020.2
20260509171147 39 307 4.0 6.0 0.01 0.01 0.01 77 1020.2